Weather History for Marshalltown, IA

Change the Weather History Date:

Saturday, June 7, 2014

  Actual Average Record
Temperature  
Mean Temperature 67 °F 68 °F  
Max Temperature 73 °F 78 °F 95 °F (2011)
Min Temperature 60 °F 57 °F 44 °F (1998)
Degree Days  
Heating Degree Days 0 1  
Month to date heating degree days 0 13  
Since 1 June heating degree days 0 13  
Since 1 July heating degree days 7908 6997  
Cooling Degree Days 2 4  
Month to date cooling degree days 33 25  
Year to date cooling degree days 112 75  
Since 1 June cooling degree days 33 25  
Growing Degree Days 17 (Base 50)    
Moisture  
Dew Point 62 °F    
Average Humidity 85    
Maximum Humidity 93    
Minimum Humidity 76    
Precipitation  
Precipitation 0.05 in 0.17 in 0.80 in (2003)
Month to date precipitation 0.58 1.27  
Sea Level Pressure  
Sea Level Pressure 29.91 in    
Wind  
Wind Speed 7 mph (ENE)    
Max Wind Speed 16 mph    
Max Gust Speed 21 mph    
Visibility 10 miles    
Events Rain    
T = Trace of Precipitation, MM = Missing Value Source: NWS Daily Summary

Daily Weather History Graph

Daily Weather History Graph

Search for Another Location

Airport:

Trip Planner

Search our weather history database for the weather conditions in past years. The results will help you decide how hot, cold, wet, or windy it might be!

Date:

Astronomy

Jun. 07, 2014 Rise Set
Actual Time 5:36 AM CDT 8:45 PM CDT
Civil Twilight 5:01 AM CDT 9:19 PM CDT
Nautical Twilight 4:18 AM CDT 10:03 PM CDT
Astronomical Twilight 3:25 AM CDT 10:56 PM CDT
Moon 2:58 PM CDT (6/7) 2:03 AM CDT (6/7)
Length of Visible Light 16h 17m
Length of Day
15h 09m
Waxing Gibbous, 68% of the Moon is Illuminated
Jun 7
Waxing Gibbous
Jun 12
Full
Jun 19
Last Quarter
Jun 27
New
Jul 5
First Quarter

Hourly Weather History & Observations

Time (CDT) Temp. Dew Point Humidity Pressure Visibility Wind Dir Wind Speed Gust Speed Precip Events Conditions
12:53 AM 66.9 °F 61.0 °F 81% 29.92 in 10.0 mi SE 5.8 mph - N/A   Clear
1:53 AM 64.9 °F 61.0 °F 87% 29.91 in 10.0 mi SE 4.6 mph - N/A   Clear
2:53 AM 64.0 °F 61.0 °F 90% 29.92 in 10.0 mi ESE 8.1 mph - N/A   Clear
4:53 AM 64.9 °F 61.0 °F 87% 29.91 in 10.0 mi SSE 3.5 mph - N/A   Clear
5:53 AM 63.0 °F 61.0 °F 93% 29.92 in 10.0 mi SE 3.5 mph - N/A   Clear
8:53 AM 70.0 °F 64.0 °F 81% 29.91 in 10.0 mi East 3.5 mph - N/A   Clear
9:53 AM 71.1 °F 64.9 °F 81% 29.92 in 10.0 mi Calm Calm - N/A   Mostly Cloudy
10:53 AM 70.0 °F 64.9 °F 84% 29.90 in 10.0 mi ESE 4.6 mph - N/A   Clear
11:53 AM 72.0 °F 64.0 °F 76% 29.88 in 10.0 mi East 3.5 mph - N/A   Mostly Cloudy
12:53 PM 73.0 °F 64.0 °F 73% 29.89 in 10.0 mi Variable 6.9 mph - 0.00 in Rain Light Rain
1:45 PM 66.9 °F 63.0 °F 87% 29.90 in 10.0 mi NNE 6.9 mph - 0.01 in Rain Light Rain
1:53 PM 66.9 °F 63.0 °F 87% 29.89 in 10.0 mi North 8.1 mph - 0.01 in Rain Light Rain
2:53 PM 66.9 °F 63.0 °F 87% 29.89 in 10.0 mi North 12.7 mph - 0.03 in Rain Light Rain
3:53 PM 66.0 °F 63.0 °F 90% 29.87 in 10.0 mi NE 9.2 mph - 0.01 in   Mostly Cloudy
4:53 PM 68.0 °F 62.1 °F 81% 29.88 in 10.0 mi North 8.1 mph - N/A   Overcast
5:53 PM 68.0 °F 63.0 °F 84% 29.90 in 10.0 mi NNE 4.6 mph - N/A   Scattered Clouds
6:53 PM 68.0 °F 61.0 °F 78% 29.91 in 10.0 mi ENE 8.1 mph - N/A   Mostly Cloudy
7:06 PM 66.9 °F 61.0 °F 81% 29.92 in 10.0 mi East 6.9 mph - N/A   Overcast
7:27 PM 66.9 °F 60.1 °F 79% 29.93 in 10.0 mi NNE 5.8 mph - N/A   Scattered Clouds
7:53 PM 66.9 °F 60.1 °F 79% 29.92 in 10.0 mi ENE 6.9 mph - N/A   Mostly Cloudy
8:53 PM 64.0 °F 60.1 °F 87% 29.93 in 10.0 mi NE 4.6 mph - N/A   Partly Cloudy
9:53 PM 62.1 °F 60.1 °F 93% 29.94 in 10.0 mi NNW 10.4 mph - N/A   Partly Cloudy
10:53 PM 61.0 °F 57.9 °F 90% 29.97 in 10.0 mi North 10.4 mph - N/A   Mostly Cloudy
11:53 PM 61.0 °F 57.0 °F 87% 29.98 in 10.0 mi North 16.1 mph - N/A   Overcast